| time (UTC) | temp F | wind direction | speed MPH | gust MPH | rain 1hr in | rain 24hr in | rain mn in | humidity % | barometer mb |
| 20260831103037 | 67 | 242 | 0.0 | 0.0 | 0.01 | 0.14 | 0.10 | 95 | 1018.2 |
| 20260831102604 | 67 | 242 | 0.0 | 1.0 | 0.01 | 0.14 | 0.10 | 95 | 1018.3 |
| 20260831102042 | 67 | 242 | 0.0 | 1.0 | 0.01 | 0.14 | 0.10 | 95 | 1018.4 |
| 20260831101522 | 67 | 242 | 0.0 | 1.0 | 0.00 | 0.13 | 0.09 | 95 | 1018.4 |
| 20260831101002 | 67 | 242 | 0.0 | 1.0 | 0.00 | 0.13 | 0.09 | 95 | 1018.4 |
| 20260831100546 | 67 | 242 | 0.0 | 0.0 | 0.00 | 0.13 | 0.09 | 95 | 1018.4 |
| 20260831100009 | 67 | 242 | 0.0 | 0.0 | 0.00 | 0.13 | 0.09 | 95 | 1018.4 |
| 20260831095550 | 67 | 242 | 0.0 | 0.0 | 0.00 | 0.13 | 0.09 | 95 | 1018.3 |
| 20260831095030 | 67 | 242 | 0.0 | 0.0 | 0.01 | 0.13 | 0.09 | 95 | 1018.5 |
| 20260831094522 | 67 | 242 | 0.0 | 0.0 | 0.01 | 0.13 | 0.09 | 95 | 1018.6 |
| 20260831094054 | 67 | 242 | 0.0 | 0.0 | 0.01 | 0.13 | 0.09 | 95 | 1018.6 |
| 20260831093534 | 68 | 242 | 0.0 | 0.0 | 0.01 | 0.13 | 0.09 | 95 | 1018.7 |
| 20260831093015 | 68 | 242 | 0.0 | 0.0 | 0.01 | 0.13 | 0.09 | 95 | 1018.6 |
| 20260831092600 | 68 | 242 | 0.0 | 0.0 | 0.01 | 0.13 | 0.09 | 95 | 1018.4 |
| 20260831092038 | 67 | 242 | 0.0 | 0.0 | 0.01 | 0.13 | 0.09 | 95 | 1018.4 |
| 20260831091518 | 67 | 242 | 0.0 | 0.0 | 0.01 | 0.13 | 0.09 | 95 | 1018.4 |
| 20260831091103 | 67 | 242 | 0.0 | 0.0 | 0.01 | 0.13 | 0.09 | 95 | 1018.3 |
| 20260831090542 | 67 | 242 | 0.0 | 0.0 | 0.01 | 0.13 | 0.09 | 95 | 1018.4 |
| 20260831090005 | 67 | 242 | 0.0 | 0.0 | 0.01 | 0.13 | 0.09 | 95 | 1018.5 |
| 20260831085550 | 67 | 242 | 0.0 | 0.0 | 0.01 | 0.13 | 0.09 | 95 | 1018.6 |
| 20260831085028 | 67 | 242 | 0.0 | 0.0 | 0.00 | 0.12 | 0.08 | 95 | 1018.6 |
| 20260831084508 | 67 | 242 | 0.0 | 0.0 | 0.00 | 0.12 | 0.08 | 95 | 1018.7 |
| 20260831084052 | 67 | 242 | 0.0 | 0.0 | 0.00 | 0.12 | 0.08 | 95 | 1018.8 |
| 20260831083532 | 67 | 242 | 0.0 | 0.0 | 0.00 | 0.12 | 0.08 | 95 | 1018.7 |
| 20260831083020 | 67 | 242 | 0.0 | 0.0 | 0.00 | 0.12 | 0.08 | 95 | 1018.8 |
| 20260831082557 | 67 | 242 | 0.0 | 0.0 | 0.00 | 0.12 | 0.08 | 95 | 1018.9 |
| 20260831082036 | 67 | 242 | 0.0 | 0.0 | 0.00 | 0.12 | 0.08 | 95 | 1018.9 |
| 20260831081517 | 67 | 242 | 0.0 | 0.0 | 0.00 | 0.12 | 0.08 | 95 | 1018.9 |
| 20260831081059 | 67 | 242 | 0.0 | 0.0 | 0.00 | 0.12 | 0.08 | 95 | 1019.0 |
| 20260831080540 | 67 | 242 | 0.0 | 0.0 | 0.00 | 0.12 | 0.08 | 95 | 1019.0 |
| 20260831080012 | 67 | 242 | 0.0 | 0.0 | 0.01 | 0.12 | 0.08 | 95 | 1019.0 |
| 20260831075546 | 67 | 242 | 0.0 | 0.0 | 0.01 | 0.12 | 0.08 | 95 | 1019.0 |
| 20260831075026 | 67 | 242 | 0.0 | 0.0 | 0.01 | 0.12 | 0.08 | 95 | 1019.0 |
| 20260831074506 | 67 | 242 | 0.0 | 0.0 | 0.01 | 0.12 | 0.08 | 95 | 1019.1 |
| 20260831074054 | 67 | 242 | 0.0 | 0.0 | 0.01 | 0.12 | 0.08 | 95 | 1019.1 |
| 20260831073530 | 67 | 242 | 0.0 | 0.0 | 0.02 | 0.12 | 0.08 | 94 | 1019.1 |
| 20260831073023 | 68 | 242 | 0.0 | 0.0 | 0.02 | 0.12 | 0.08 | 94 | 1019.2 |
| 20260831072555 | 68 | 242 | 0.0 | 0.0 | 0.03 | 0.12 | 0.08 | 94 | 1019.2 |
| 20260831072034 | 68 | 242 | 0.0 | 0.0 | 0.03 | 0.12 | 0.08 | 94 | 1019.3 |
| 20260831071514 | 68 | 242 | 0.0 | 0.0 | 0.04 | 0.12 | 0.08 | 94 | 1019.2 |
| 20260831071059 | 68 | 242 | 0.0 | 0.0 | 0.05 | 0.12 | 0.08 | 94 | 1019.3 |
| 20260831070542 | 68 | 242 | 0.0 | 0.0 | 0.07 | 0.12 | 0.08 | 94 | 1019.3 |
| 20260831070123 | 68 | 242 | 0.0 | 0.0 | 0.06 | 0.11 | 0.07 | 95 | 1019.3 |
| 20260831065545 | 68 | 242 | 0.0 | 0.0 | 0.07 | 0.11 | 0.07 | 94 | 1019.2 |
| 20260831065025 | 68 | 242 | 0.0 | 0.0 | 0.07 | 0.11 | 0.07 | 94 | 1019.2 |
| 20260831064504 | 68 | 242 | 0.0 | 0.0 | 0.07 | 0.11 | 0.07 | 94 | 1019.3 |
| 20260831064048 | 68 | 242 | 0.0 | 0.0 | 0.07 | 0.11 | 0.07 | 94 | 1019.2 |
| 20260831063528 | 68 | 242 | 0.0 | 0.0 | 0.06 | 0.10 | 0.06 | 94 | 1019.3 |
| 20260831063012 | 68 | 242 | 0.0 | 0.0 | 0.06 | 0.10 | 0.06 | 94 | 1019.5 |
| 20260831062552 | 68 | 242 | 0.0 | 0.0 | 0.05 | 0.09 | 0.05 | 94 | 1019.4 |
| 20260831062032 | 68 | 242 | 0.0 | 0.0 | 0.05 | 0.09 | 0.05 | 94 | 1019.3 |
| 20260831061512 | 68 | 242 | 0.0 | 0.0 | 0.04 | 0.08 | 0.04 | 94 | 1019.4 |
| 20260831061055 | 68 | 242 | 0.0 | 0.0 | 0.03 | 0.07 | 0.03 | 94 | 1019.6 |
| 20260831060538 | 68 | 242 | 0.0 | 0.0 | 0.01 | 0.05 | 0.01 | 94 | 1019.6 |
| 20260831060126 | 68 | 242 | 0.0 | 0.0 | 0.01 | 0.05 | 0.01 | 94 | 1019.6 |
| 20260831055542 | 68 | 242 | 0.0 | 0.0 | 0.00 | 0.04 | 0.00 | 94 | 1019.6 |
| 20260831055022 | 68 | 242 | 0.0 | 0.0 | 0.00 | 0.04 | 0.00 | 94 | 1019.7 |
| 20260831054502 | 68 | 242 | 0.0 | 0.0 | 0.00 | 0.04 | 0.00 | 94 | 1019.6 |
| 20260831054046 | 68 | 242 | 0.0 | 0.0 | 0.00 | 0.04 | 0.00 | 94 | 1019.7 |
| 20260831053526 | 68 | 242 | 0.0 | 0.0 | 0.00 | 0.04 | 0.00 | 94 | 1019.7 |
| 20260831053012 | 68 | 242 | 0.0 | 0.0 | 0.00 | 0.04 | 0.00 | 94 | 1019.8 |
| 20260831052550 | 68 | 242 | 0.0 | 0.0 | 0.00 | 0.04 | 0.00 | 94 | 1019.7 |
| 20260831052029 | 68 | 242 | 0.0 | 0.0 | 0.00 | 0.04 | 0.00 | 94 | 1019.6 |
| 20260831051512 | 68 | 242 | 0.0 | 0.0 | 0.00 | 0.04 | 0.00 | 94 | 1019.6 |
| 20260831051054 | 68 | 242 | 0.0 | 0.0 | 0.00 | 0.04 | 0.00 | 94 | 1019.5 |
| 20260831050534 | 68 | 242 | 0.0 | 0.0 | 0.00 | 0.04 | 0.00 | 94 | 1019.5 |
| 20260831050118 | 68 | 242 | 0.0 | 0.0 | 0.00 | 0.04 | 0.00 | 94 | 1019.6 |
| 20260831045540 | 68 | 242 | 0.0 | 0.0 | 0.00 | 0.04 | 0.00 | 94 | 1019.6 |
| 20260831045021 | 68 | 242 | 0.0 | 0.0 | 0.00 | 0.04 | 0.00 | 94 | 1019.7 |
| 20260831044604 | 68 | 242 | 0.0 | 0.0 | 0.00 | 0.04 | 0.00 | 94 | 1019.7 |
| 20260831044045 | 68 | 242 | 0.0 | 0.0 | 0.00 | 0.04 | 0.00 | 94 | 1019.7 |
| 20260831043524 | 68 | 242 | 0.0 | 0.0 | 0.00 | 0.04 | 0.00 | 94 | 1019.5 |
| 20260831043004 | 68 | 242 | 0.0 | 0.0 | 0.00 | 0.04 | 0.00 | 94 | 1019.6 |
| 20260831042551 | 68 | 242 | 0.0 | 0.0 | 0.00 | 0.04 | 0.00 | 94 | 1019.5 |
| 20260831042028 | 68 | 242 | 0.0 | 0.0 | 0.00 | 0.04 | 0.00 | 94 | 1019.6 |
| 20260831041510 | 68 | 242 | 0.0 | 0.0 | 0.00 | 0.04 | 0.00 | 94 | 1019.5 |
| 20260831041052 | 68 | 242 | 0.0 | 0.0 | 0.00 | 0.04 | 0.04 | 94 | 1019.4 |
| 20260831040532 | 68 | 242 | 0.0 | 0.0 | 0.00 | 0.04 | 0.04 | 94 | 1019.4 |
| 20260831040115 | 68 | 242 | 0.0 | 0.0 | 0.00 | 0.04 | 0.04 | 94 | 1019.4 |
| 20260831035538 | 68 | 242 | 0.0 | 0.0 | 0.00 | 0.04 | 0.04 | 93 | 1019.5 |
| 20260831035018 | 68 | 242 | 0.0 | 0.0 | 0.00 | 0.04 | 0.04 | 93 | 1019.6 |
| 20260831034602 | 68 | 242 | 0.0 | 0.0 | 0.00 | 0.04 | 0.04 | 93 | 1019.6 |
| 20260831034043 | 68 | 242 | 0.0 | 0.0 | 0.00 | 0.04 | 0.04 | 93 | 1019.6 |
| 20260831033522 | 68 | 242 | 0.0 | 0.0 | 0.00 | 0.04 | 0.04 | 93 | 1019.6 |
| 20260831033004 | 68 | 242 | 0.0 | 0.0 | 0.00 | 0.04 | 0.04 | 93 | 1019.6 |
| 20260831032546 | 68 | 242 | 0.0 | 0.0 | 0.00 | 0.04 | 0.04 | 93 | 1019.6 |
| 20260831032026 | 68 | 242 | 0.0 | 0.0 | 0.00 | 0.04 | 0.04 | 93 | 1019.6 |
| 20260831031505 | 68 | 242 | 0.0 | 2.0 | 0.00 | 0.04 | 0.04 | 93 | 1019.6 |
| 20260831031050 | 68 | 242 | 0.0 | 2.0 | 0.00 | 0.04 | 0.04 | 93 | 1019.8 |
| 20260831030533 | 68 | 242 | 0.0 | 2.0 | 0.00 | 0.04 | 0.04 | 93 | 1019.7 |
| 20260831030120 | 68 | 242 | 0.0 | 2.0 | 0.00 | 0.04 | 0.04 | 93 | 1019.7 |
| 20260831025538 | 68 | 242 | 0.0 | 2.0 | 0.00 | 0.04 | 0.04 | 93 | 1019.7 |
| 20260831025017 | 67 | 242 | 0.0 | 0.0 | 0.00 | 0.04 | 0.04 | 93 | 1019.7 |
| 20260831024600 | 67 | 242 | 0.0 | 0.0 | 0.00 | 0.04 | 0.04 | 93 | 1019.8 |
| 20260831024040 | 67 | 242 | 0.0 | 2.0 | 0.00 | 0.04 | 0.04 | 93 | 1019.9 |
| 20260831023520 | 67 | 242 | 0.0 | 2.0 | 0.00 | 0.04 | 0.04 | 93 | 1020.0 |
| 20260831023103 | 67 | 242 | 0.0 | 4.0 | 0.00 | 0.04 | 0.04 | 93 | 1020.1 |
| 20260831022544 | 67 | 242 | 0.0 | 4.0 | 0.00 | 0.04 | 0.04 | 93 | 1020.0 |
| 20260831022024 | 67 | 242 | 0.0 | 2.0 | 0.00 | 0.04 | 0.04 | 93 | 1020.0 |
| 20260831021504 | 67 | 242 | 0.0 | 1.0 | 0.00 | 0.04 | 0.04 | 93 | 1019.7 |
| 20260831021048 | 67 | 242 | 0.0 | 1.0 | 0.00 | 0.04 | 0.04 | 93 | 1019.6 |
| 20260831020530 | 67 | 242 | 0.0 | 2.0 | 0.00 | 0.04 | 0.04 | 93 | 1019.7 |
| 20260831020113 | 67 | 242 | 0.0 | 2.0 | 0.00 | 0.04 | 0.04 | 93 | 1019.7 |
| 20260831015533 | 67 | 242 | 0.0 | 1.0 | 0.00 | 0.04 | 0.04 | 92 | 1019.9 |
| 20260831015013 | 67 | 242 | 0.0 | 0.0 | 0.00 | 0.04 | 0.04 | 92 | 1020.1 |
| 20260831014558 | 67 | 242 | 0.0 | 0.0 | 0.00 | 0.04 | 0.04 | 92 | 1020.1 |
| 20260831014038 | 67 | 242 | 0.0 | 4.0 | 0.00 | 0.04 | 0.04 | 92 | 1020.1 |
| 20260831013518 | 67 | 242 | 0.0 | 4.0 | 0.00 | 0.04 | 0.04 | 92 | 1020.2 |
| 20260831013102 | 67 | 242 | 0.0 | 4.0 | 0.00 | 0.04 | 0.04 | 92 | 1020.0 |
| 20260831012542 | 67 | 235 | 0.0 | 0.0 | 0.00 | 0.04 | 0.04 | 92 | 1020.0 |
| 20260831012025 | 67 | 235 | 0.0 | 2.0 | 0.00 | 0.04 | 0.04 | 92 | 1020.0 |
| 20260831011501 | 67 | 235 | 0.0 | 2.0 | 0.00 | 0.04 | 0.04 | 92 | 1019.9 |
| 20260831011045 | 67 | 235 | 0.0 | 2.0 | 0.00 | 0.04 | 0.04 | 92 | 1019.8 |
| 20260831010531 | 67 | 235 | 0.0 | 2.0 | 0.00 | 0.04 | 0.04 | 92 | 1019.6 |
| 20260831010109 | 67 | 235 | 0.0 | 2.0 | 0.00 | 0.04 | 0.04 | 92 | 1019.6 |
| 20260831005532 | 67 | 235 | 0.0 | 2.0 | 0.00 | 0.04 | 0.04 | 92 | 1019.5 |
| 20260831005012 | 67 | 235 | 0.0 | 0.0 | 0.00 | 0.04 | 0.04 | 92 | 1019.5 |
| 20260831004556 | 67 | 235 | 0.0 | 0.0 | 0.00 | 0.04 | 0.04 | 92 | 1019.4 |
| 20260831004036 | 67 | 235 | 0.0 | 1.0 | 0.00 | 0.04 | 0.04 | 92 | 1019.5 |
| 20260831003515 | 67 | 235 | 0.0 | 4.0 | 0.00 | 0.04 | 0.04 | 92 | 1019.5 |
| 20260831003100 | 67 | 235 | 0.0 | 4.0 | 0.00 | 0.04 | 0.04 | 92 | 1019.4 |
| 20260831002540 | 67 | 235 | 0.0 | 2.0 | 0.00 | 0.04 | 0.04 | 92 | 1019.3 |
| 20260831002024 | 67 | 235 | 0.0 | 2.0 | 0.00 | 0.04 | 0.04 | 92 | 1019.1 |
| 20260831001604 | 67 | 235 | 0.0 | 2.0 | 0.00 | 0.04 | 0.04 | 92 | 1019.3 |
| 20260831001044 | 67 | 235 | 0.0 | 2.0 | 0.00 | 0.04 | 0.04 | 92 | 1019.1 |
| 20260831000524 | 67 | 235 | 0.0 | 2.0 | 0.00 | 0.04 | 0.04 | 92 | 1019.2 |
| 20260831000108 | 67 | 235 | 0.0 | 2.0 | 0.00 | 0.04 | 0.04 | 92 | 1019.3 |
| 20260830235529 | 66 | 235 | 0.0 | 2.0 | 0.00 | 0.04 | 0.04 | 92 | 1019.1 |
| 20260830235012 | 66 | 235 | 0.0 | 2.0 | 0.00 | 0.04 | 0.04 | 92 | 1019.1 |
| 20260830234559 | 66 | 235 | 0.0 | 2.0 | 0.00 | 0.04 | 0.04 | 92 | 1019.0 |
| 20260830234041 | 66 | 235 | 0.0 | 4.0 | 0.00 | 0.04 | 0.04 | 92 | 1019.0 |
| 20260830233513 | 66 | 235 | 0.0 | 4.0 | 0.00 | 0.04 | 0.04 | 92 | 1019.0 |
| 20260830233058 | 66 | 235 | 0.0 | 2.0 | 0.00 | 0.04 | 0.04 | 92 | 1018.9 |
| 20260830232538 | 66 | 235 | 0.0 | 2.0 | 0.00 | 0.04 | 0.04 | 92 | 1018.9 |
| 20260830232022 | 66 | 235 | 0.0 | 4.0 | 0.00 | 0.04 | 0.04 | 92 | 1019.0 |
| 20260830231602 | 66 | 235 | 0.0 | 5.0 | 0.00 | 0.04 | 0.04 | 92 | 1019.0 |
| 20260830231041 | 66 | 235 | 1.0 | 5.0 | 0.00 | 0.04 | 0.04 | 92 | 1019.0 |
| 20260830230521 | 66 | 234 | 0.0 | 4.0 | 0.00 | 0.04 | 0.04 | 92 | 1019.0 |
| 20260830230105 | 66 | 234 | 0.0 | 2.0 | 0.00 | 0.04 | 0.04 | 91 | 1019.1 |
| 20260830225527 | 66 | 234 | 0.0 | 1.0 | 0.00 | 0.04 | 0.04 | 91 | 1019.1 |
| 20260830225007 | 66 | 234 | 0.0 | 1.0 | 0.00 | 0.04 | 0.04 | 91 | 1019.0 |
| 20260830224553 | 66 | 234 | 0.0 | 2.0 | 0.00 | 0.04 | 0.04 | 91 | 1019.1 |
| 20260830224032 | 66 | 234 | 0.0 | 2.0 | 0.00 | 0.04 | 0.04 | 91 | 1019.3 |
| 20260830223512 | 66 | 234 | 0.0 | 2.0 | 0.00 | 0.04 | 0.04 | 91 | 1019.3 |
| 20260830223103 | 66 | 234 | 0.0 | 2.0 | 0.00 | 0.04 | 0.04 | 91 | 1019.3 |
| 20260830222535 | 66 | 234 | 0.0 | 0.0 | 0.00 | 0.04 | 0.04 | 91 | 1019.3 |
| 20260830222019 | 66 | 234 | 0.0 | 0.0 | 0.00 | 0.04 | 0.04 | 90 | 1019.3 |
| 20260830221619 | 66 | 234 | 0.0 | 1.0 | 0.00 | 0.04 | 0.04 | 90 | 1019.4 |
| 20260830221040 | 66 | 234 | 0.0 | 4.0 | 0.00 | 0.04 | 0.04 | 89 | 1019.3 |
| 20260830220519 | 66 | 234 | 0.0 | 4.0 | 0.00 | 0.04 | 0.04 | 89 | 1019.3 |
| 20260830220104 | 67 | 234 | 0.0 | 4.0 | 0.00 | 0.04 | 0.04 | 89 | 1019.3 |
| 20260830215526 | 67 | 234 | 0.0 | 4.0 | 0.00 | 0.04 | 0.04 | 89 | 1019.3 |
| 20260830215006 | 67 | 235 | 0.0 | 7.0 | 0.00 | 0.04 | 0.04 | 89 | 1019.3 |
| 20260830214549 | 67 | 235 | 0.0 | 7.0 | 0.00 | 0.04 | 0.04 | 88 | 1019.2 |
| 20260830214029 | 68 | 221 | 2.0 | 6.0 | 0.00 | 0.04 | 0.04 | 88 | 1019.3 |
| 20260830213506 | 68 | 222 | 0.0 | 6.0 | 0.00 | 0.04 | 0.04 | 88 | 1019.4 |
| 20260830213050 | 68 | 223 | 0.0 | 6.0 | 0.00 | 0.04 | 0.04 | 88 | 1019.5 |
| 20260830212530 | 68 | 219 | 0.0 | 4.0 | 0.00 | 0.04 | 0.04 | 87 | 1019.3 |
| 20260830212010 | 67 | 219 | 0.0 | 4.0 | 0.00 | 0.04 | 0.04 | 87 | 1019.3 |
| 20260830211554 | 67 | 219 | 0.0 | 2.0 | 0.00 | 0.04 | 0.04 | 87 | 1019.3 |
| 20260830211036 | 67 | 219 | 0.0 | 2.0 | 0.00 | 0.04 | 0.04 | 87 | 1019.2 |
| 20260830210514 | 67 | 219 | 0.0 | 4.0 | 0.00 | 0.04 | 0.04 | 87 | 1019.3 |
| 20260830210058 | 67 | 219 | 0.0 | 6.0 | 0.00 | 0.04 | 0.04 | 88 | 1019.4 |
| 20260830205521 | 67 | 219 | 0.0 | 6.0 | 0.00 | 0.04 | 0.04 | 88 | 1019.2 |
| 20260830205106 | 67 | 226 | 0.0 | 6.0 | 0.00 | 0.04 | 0.04 | 89 | 1019.3 |
| 20260830204545 | 67 | 221 | 1.0 | 6.0 | 0.00 | 0.04 | 0.04 | 89 | 1019.3 |
| 20260830204024 | 67 | 220 | 2.0 | 6.0 | 0.00 | 0.04 | 0.04 | 90 | 1019.3 |
| 20260830203505 | 67 | 266 | 0.0 | 2.0 | 0.00 | 0.04 | 0.04 | 91 | 1019.3 |
| 20260830203053 | 67 | 266 | 0.0 | 2.0 | 0.00 | 0.04 | 0.04 | 91 | 1019.3 |
| 20260830202527 | 66 | 266 | 0.0 | 2.0 | 0.01 | 0.04 | 0.04 | 91 | 1019.4 |
| 20260830202009 | 66 | 266 | 0.0 | 1.0 | 0.01 | 0.04 | 0.04 | 91 | 1019.4 |
| 20260830201608 | 66 | 266 | 0.0 | 0.0 | 0.02 | 0.04 | 0.04 | 91 | 1019.4 |
| 20260830201032 | 66 | 266 | 0.0 | 0.0 | 0.02 | 0.04 | 0.04 | 92 | 1019.6 |
| 20260830200512 | 66 | 266 | 0.0 | 0.0 | 0.02 | 0.04 | 0.04 | 91 | 1019.7 |
| 20260830195518 | 66 | 266 | 0.0 | 1.0 | 0.02 | 0.04 | 0.04 | 91 | 1019.6 |
| 20260830195103 | 66 | 266 | 0.0 | 1.0 | 0.02 | 0.04 | 0.04 | 90 | 1019.6 |
| 20260830194546 | 66 | 266 | 0.0 | 2.0 | 0.02 | 0.04 | 0.04 | 90 | 1019.7 |
| 20260830194023 | 66 | 266 | 0.0 | 3.0 | 0.02 | 0.04 | 0.04 | 90 | 1019.8 |
| 20260830193503 | 66 | 266 | 0.0 | 8.0 | 0.02 | 0.04 | 0.04 | 88 | 1019.9 |
| 20260830193052 | 66 | 266 | 0.0 | 8.0 | 0.02 | 0.04 | 0.04 | 88 | 1019.9 |
| 20260830192526 | 67 | 240 | 2.0 | 7.0 | 0.01 | 0.03 | 0.03 | 87 | 1020.0 |
| 20260830192006 | 68 | 225 | 2.0 | 5.0 | 0.01 | 0.03 | 0.03 | 86 | 1020.0 |
| 20260830191554 | 68 | 270 | 1.0 | 6.0 | 0.00 | 0.02 | 0.02 | 86 | 1020.0 |
| 20260830191030 | 68 | 214 | 2.0 | 6.0 | 0.00 | 0.02 | 0.02 | 85 | 1020.0 |
| 20260830190510 | 69 | 263 | 1.0 | 5.0 | 0.00 | 0.02 | 0.02 | 86 | 1019.9 |
| 20260830190055 | 69 | 279 | 0.0 | 2.0 | 0.00 | 0.02 | 0.02 | 85 | 1020.0 |
| 20260830185519 | 69 | 280 | 0.0 | 4.0 | 0.00 | 0.02 | 0.02 | 85 | 1019.9 |
| 20260830185101 | 69 | 280 | 0.0 | 5.0 | 0.00 | 0.02 | 0.02 | 85 | 1019.9 |
| 20260830184542 | 69 | 286 | 1.0 | 9.0 | 0.00 | 0.02 | 0.02 | 85 | 1020.0 |
| 20260830184020 | 69 | 220 | 0.0 | 9.0 | 0.00 | 0.02 | 0.02 | 85 | 1019.9 |
| 20260830183606 | 69 | 223 | 2.0 | 9.0 | 0.00 | 0.02 | 0.02 | 85 | 1020.1 |
| 20260830183044 | 69 | 269 | 3.0 | 7.0 | 0.00 | 0.02 | 0.02 | 86 | 1020.0 |
| 20260830182524 | 69 | 221 | 1.0 | 4.0 | 0.00 | 0.02 | 0.02 | 86 | 1019.8 |
| 20260830182004 | 69 | 217 | 0.0 | 7.0 | 0.00 | 0.02 | 0.02 | 86 | 1019.8 |
| 20260830181549 | 69 | 236 | 0.0 | 4.0 | 0.00 | 0.02 | 0.02 | 87 | 1019.9 |
| 20260830181028 | 69 | 236 | 0.0 | 4.0 | 0.00 | 0.02 | 0.02 | 87 | 1019.8 |
| 20260830180509 | 69 | 221 | 0.0 | 7.0 | 0.00 | 0.02 | 0.02 | 89 | 1019.9 |
| 20260830180058 | 69 | 221 | 2.0 | 7.0 | 0.00 | 0.02 | 0.02 | 89 | 1020.1 |
| 20260830175511 | 69 | 293 | 0.0 | 4.0 | 0.00 | 0.02 | 0.02 | 90 | 1020.1 |
| 20260830175055 | 69 | 298 | 0.0 | 4.0 | 0.00 | 0.02 | 0.02 | 91 | 1020.1 |
| 20260830174535 | 69 | 301 | 0.0 | 4.0 | 0.00 | 0.02 | 0.02 | 91 | 1020.3 |
| 20260830174015 | 69 | 301 | 0.0 | 0.0 | 0.00 | 0.02 | 0.02 | 91 | 1020.2 |
| 20260830173601 | 69 | 301 | 0.0 | 0.0 | 0.00 | 0.02 | 0.02 | 91 | 1020.2 |
| 20260830173057 | 69 | 301 | 0.0 | 0.0 | 0.00 | 0.02 | 0.02 | 91 | 1020.2 |
| 20260830172519 | 69 | 301 | 0.0 | 0.0 | 0.00 | 0.02 | 0.02 | 91 | 1020.2 |
| 20260830172104 | 69 | 301 | 0.0 | 0.0 | 0.00 | 0.02 | 0.02 | 91 | 1020.1 |
| 20260830171547 | 69 | 301 | 0.0 | 0.0 | 0.00 | 0.02 | 0.02 | 91 | 1020.0 |
| 20260830171023 | 69 | 301 | 0.0 | 0.0 | 0.00 | 0.02 | 0.02 | 91 | 1020.0 |
| 20260830170503 | 69 | 301 | 0.0 | 0.0 | 0.00 | 0.02 | 0.02 | 91 | 1020.0 |
| 20260830170047 | 68 | 301 | 0.0 | 0.0 | 0.00 | 0.02 | 0.02 | 91 | 1020.1 |
| 20260830165509 | 68 | 301 | 0.0 | 0.0 | 0.00 | 0.02 | 0.02 | 91 | 1020.1 |
| 20260830165053 | 68 | 301 | 0.0 | 0.0 | 0.00 | 0.02 | 0.02 | 92 | 1020.2 |
| 20260830164547 | 68 | 301 | 0.0 | 0.0 | 0.00 | 0.02 | 0.02 | 92 | 1020.1 |
| 20260830164014 | 68 | 301 | 0.0 | 0.0 | 0.00 | 0.02 | 0.02 | 92 | 1020.1 |
| 20260830163557 | 68 | 301 | 0.0 | 2.0 | 0.00 | 0.02 | 0.02 | 92 | 1020.1 |
| 20260830163050 | 68 | 301 | 0.0 | 2.0 | 0.00 | 0.02 | 0.02 | 92 | 1020.1 |
| 20260830162518 | 68 | 301 | 0.0 | 2.0 | 0.01 | 0.02 | 0.02 | 93 | 1020.1 |
| 20260830162102 | 68 | 301 | 0.0 | 0.0 | 0.01 | 0.02 | 0.02 | 93 | 1020.1 |
| 20260830161542 | 68 | 301 | 0.0 | 0.0 | 0.01 | 0.02 | 0.02 | 93 | 1020.1 |
| 20260830161021 | 67 | 301 | 0.0 | 0.0 | 0.01 | 0.02 | 0.02 | 93 | 1020.1 |
| 20260830160502 | 67 | 301 | 0.0 | 0.0 | 0.01 | 0.02 | 0.02 | 93 | 1020.1 |
| 20260830160046 | 67 | 301 | 0.0 | 0.0 | 0.01 | 0.02 | 0.02 | 93 | 1020.1 |
| 20260830155508 | 67 | 301 | 0.0 | 0.0 | 0.01 | 0.02 | 0.02 | 93 | 1020.3 |
| 20260830155049 | 67 | 301 | 0.0 | 0.0 | 0.01 | 0.02 | 0.02 | 93 | 1020.3 |
| 20260830154534 | 67 | 301 | 0.0 | 0.0 | 0.01 | 0.02 | 0.02 | 93 | 1020.3 |
| 20260830154009 | 67 | 301 | 0.0 | 0.0 | 0.01 | 0.02 | 0.02 | 93 | 1020.4 |
| 20260830153552 | 67 | 301 | 0.0 | 0.0 | 0.01 | 0.02 | 0.02 | 93 | 1020.4 |
| 20260830153032 | 67 | 301 | 0.0 | 0.0 | 0.02 | 0.02 | 0.02 | 93 | 1020.4 |
| 20260830152512 | 67 | 301 | 0.0 | 0.0 | 0.01 | 0.01 | 0.01 | 92 | 1020.4 |
| 20260830152056 | 67 | 301 | 0.0 | 0.0 | 0.01 | 0.01 | 0.01 | 92 | 1020.4 |
| 20260830151536 | 67 | 301 | 0.0 | 2.0 | 0.01 | 0.01 | 0.01 | 92 | 1020.6 |
| 20260830151018 | 67 | 301 | 0.0 | 2.0 | 0.01 | 0.01 | 0.01 | 92 | 1020.7 |
| 20260830150600 | 67 | 301 | 0.0 | 2.0 | 0.01 | 0.01 | 0.01 | 91 | 1020.6 |
| 20260830150042 | 67 | 301 | 0.0 | 2.0 | 0.01 | 0.01 | 0.01 | 91 | 1020.6 |
| 20260830145503 | 67 | 301 | 0.0 | 1.0 | 0.01 | 0.01 | 0.01 | 91 | 1020.5 |
| 20260830145045 | 67 | 302 | 0.0 | 5.0 | 0.01 | 0.01 | 0.01 | 90 | 1020.5 |
| 20260830144526 | 67 | 302 | 0.0 | 5.0 | 0.01 | 0.01 | 0.01 | 90 | 1020.5 |
| 20260830144006 | 67 | 298 | 0.0 | 7.0 | 0.01 | 0.01 | 0.01 | 89 | 1020.3 |
| 20260830143552 | 68 | 298 | 0.0 | 7.0 | 0.01 | 0.01 | 0.01 | 89 | 1020.3 |
| 20260830143030 | 68 | 209 | 0.0 | 1.0 | 0.00 | 0.00 | 0.00 | 88 | 1020.3 |
| 20260830142514 | 68 | 209 | 0.0 | 8.0 | 0.00 | 0.00 | 0.00 | 88 | 1020.3 |
| 20260830142055 | 68 | 208 | 0.0 | 8.0 | 0.00 | 0.00 | 0.00 | 87 | 1020.3 |
| 20260830141534 | 69 | 234 | 0.0 | 4.0 | 0.00 | 0.00 | 0.00 | 86 | 1020.3 |
| 20260830141013 | 69 | 233 | 0.0 | 5.0 | 0.00 | 0.00 | 0.00 | 86 | 1020.1 |
| 20260830140558 | 69 | 233 | 0.0 | 5.0 | 0.00 | 0.00 | 0.00 | 86 | 1020.0 |
| 20260830140038 | 69 | 221 | 0.0 | 1.0 | 0.00 | 0.00 | 0.00 | 87 | 1020.0 |
| 20260830135607 | 69 | 221 | 0.0 | 0.0 | 0.00 | 0.00 | 0.00 | 87 | 1019.9 |
| 20260830135044 | 69 | 221 | 0.0 | 0.0 | 0.00 | 0.00 | 0.00 | 87 | 1019.9 |
| 20260830134526 | 69 | 221 | 0.0 | 0.0 | 0.00 | 0.00 | 0.00 | 87 | 1019.8 |
| 20260830134004 | 69 | 221 | 0.0 | 0.0 | 0.00 | 0.00 | 0.00 | 86 | 1019.8 |
| 20260830133549 | 69 | 221 | 0.0 | 0.0 | 0.00 | 0.00 | 0.00 | 86 | 1019.8 |
| 20260830133027 | 69 | 221 | 0.0 | 0.0 | 0.00 | 0.00 | 0.00 | 87 | 1019.8 |
| 20260830132507 | 69 | 221 | 0.0 | 0.0 | 0.00 | 0.00 | 0.00 | 87 | 1019.9 |
| 20260830132052 | 69 | 221 | 0.0 | 0.0 | 0.00 | 0.00 | 0.00 | 87 | 1019.7 |
| 20260830131538 | 69 | 221 | 0.0 | 0.0 | 0.00 | 0.00 | 0.00 | 87 | 1019.7 |
| 20260830131012 | 69 | 221 | 0.0 | 0.0 | 0.00 | 0.00 | 0.00 | 87 | 1019.7 |
| 20260830130555 | 69 | 221 | 0.0 | 0.0 | 0.00 | 0.00 | 0.00 | 88 | 1019.7 |
| 20260830130017 | 69 | 221 | 0.0 | 0.0 | 0.00 | 0.00 | 0.00 | 88 | 1019.6 |
| 20260830125604 | 69 | 221 | 0.0 | 0.0 | 0.00 | 0.00 | 0.00 | 88 | 1019.5 |
| 20260830125042 | 69 | 221 | 0.0 | 0.0 | 0.00 | 0.00 | 0.00 | 88 | 1019.3 |
| 20260830124522 | 69 | 221 | 0.0 | 0.0 | 0.00 | 0.00 | 0.00 | 88 | 1019.3 |
| 20260830124002 | 69 | 221 | 0.0 | 0.0 | 0.00 | 0.00 | 0.00 | 87 | 1019.2 |
| 20260830123546 | 69 | 221 | 0.0 | 0.0 | 0.00 | 0.00 | 0.00 | 87 | 1019.0 |
| 20260830123026 | 69 | 221 | 0.0 | 0.0 | 0.00 | 0.00 | 0.00 | 87 | 1019.1 |
| 20260830122506 | 69 | 221 | 0.0 | 0.0 | 0.00 | 0.00 | 0.00 | 87 | 1019.5 |
| 20260830122050 | 69 | 221 | 0.0 | 0.0 | 0.00 | 0.00 | 0.00 | 86 | 1019.6 |
| 20260830121530 | 69 | 221 | 0.0 | 0.0 | 0.00 | 0.00 | 0.00 | 87 | 1019.6 |
| 20260830121009 | 69 | 221 | 0.0 | 0.0 | 0.00 | 0.00 | 0.00 | 87 | 1019.7 |
| 20260830120554 | 69 | 221 | 0.0 | 0.0 | 0.00 | 0.00 | 0.00 | 86 | 1019.5 |
| 20260830120016 | 69 | 221 | 0.0 | 0.0 | 0.00 | 0.00 | 0.00 | 86 | 1019.6 |
| 20260830115600 | 69 | 236 | 0.0 | 0.0 | 0.00 | 0.00 | 0.00 | 86 | 1019.6 |
| 20260830115041 | 69 | 236 | 0.0 | 0.0 | 0.00 | 0.00 | 0.00 | 86 | 1019.6 |
| 20260830114520 | 69 | 236 | 0.0 | 0.0 | 0.00 | 0.00 | 0.00 | 85 | 1019.4 |
| 20260830114105 | 69 | 236 | 0.0 | 0.0 | 0.00 | 0.00 | 0.00 | 85 | 1019.5 |
| 20260830113544 | 70 | 236 | 0.0 | 0.0 | 0.00 | 0.00 | 0.00 | 85 | 1019.5 |
| 20260830113023 | 70 | 236 | 0.0 | 0.0 | 0.00 | 0.00 | 0.00 | 85 | 1019.4 |
| 20260830112504 | 70 | 236 | 0.0 | 0.0 | 0.00 | 0.00 | 0.00 | 85 | 1019.3 |
| 20260830112048 | 70 | 236 | 0.0 | 0.0 | 0.00 | 0.00 | 0.00 | 85 | 1019.2 |
| 20260830111528 | 70 | 236 | 0.0 | 0.0 | 0.00 | 0.00 | 0.00 | 85 | 1019.2 |
| 20260830111008 | 70 | 236 | 0.0 | 0.0 | 0.00 | 0.00 | 0.00 | 84 | 1019.3 |
| 20260830110552 | 70 | 236 | 0.0 | 0.0 | 0.00 | 0.00 | 0.00 | 84 | 1019.3 |
| 20260830110011 | 70 | 236 | 0.0 | 0.0 | 0.00 | 0.00 | 0.00 | 84 | 1019.3 |
| 20260830105559 | 70 | 236 | 0.0 | 0.0 | 0.00 | 0.00 | 0.00 | 83 | 1019.3 |
| 20260830105035 | 70 | 236 | 0.0 | 0.0 | 0.00 | 0.00 | 0.00 | 83 | 1019.2 |
| 20260830104514 | 70 | 236 | 0.0 | 0.0 | 0.00 | 0.00 | 0.00 | 83 | 1019.2 |
| 20260830104059 | 70 | 236 | 0.0 | 0.0 | 0.00 | 0.00 | 0.00 | 83 | 1019.3 |
| 20260830103541 | 70 | 236 | 0.0 | 0.0 | 0.00 | 0.00 | 0.00 | 82 | 1019.3 |